When you browse on this site, cookies collect data to enhance your experience and personalize the content and advertising you see.
Visit our Privacy Policy to learn more. By continuing to use the site, you agree to this use of cookies and data.
  • In Romania
  • List of Countries
  • For 7 days
  • Water Temperature
  • Satellite Maps
  • Weather Map
  • Weather Widgets
  • user-avatar
    Login

    Hourly Weather Lumivaara

    Today, 22 July, Monday

    Time Temperature Precipitation Wind Pressure Humidity
    00:00 +15°C° 0 mm 1 mps 761 mmHg 71%
    01:00 +15°C° 0 mm 1 mps 761 mmHg 72%
    02:00 +14°C° 0 mm 1 mps 761 mmHg 75%
    03:00 +15°C° 0 mm 1 mps 761 mmHg 75%
    04:00 +16°C° 0 mm 1 mps 761 mmHg 74%
    05:00 +16°C° 0 mm 1 mps 761 mmHg 73%
    06:00 +19°C° 0 mm 1 mps 761 mmHg 66%
    07:00 +21°C° 0 mm 1 mps 761 mmHg 59%
    08:00 +24°C° 0 mm 1 mps 761 mmHg 52%
    09:00 +25°C° 0 mm 1 mps 760 mmHg 49%
    10:00 +26°C° 0 mm 1 mps 760 mmHg 45%
    11:00 +26°C° 0 mm 2 mps 760 mmHg 42%
    12:00 +26°C° 0 mm 2 mps 760 mmHg 43%
    13:00 +26°C° 0 mm 2 mps 760 mmHg 45%
    14:00 +25°C° 0 mm 2 mps 760 mmHg 47%
    15:00 +25°C° 0 mm 2 mps 760 mmHg 46%
    16:00 +25°C° 0 mm 1 mps 760 mmHg 46%
    17:00 +25°C° 0 mm 1 mps 759 mmHg 46%
    18:00 +23°C° 0 mm 1 mps 759 mmHg 52%
    19:00 +22°C° 0 mm 1 mps 759 mmHg 58%
    20:00 +20°C° 0 mm 1 mps 759 mmHg 65%
    21:00 +19°C° 0 mm 1 mps 759 mmHg 65%
    22:00 +18°C° 0 mm 1 mps 759 mmHg 65%
    23:00 +16°C° 0 mm 1 mps 759 mmHg 66%

    Tomorrow, 23 July, Tuesday

    Time Temperature Precipitation Wind Pressure Humidity
    00:00 +16°C° 0 mm 1 mps 759 mmHg 68%
    01:00 +16°C° 0 mm 1 mps 759 mmHg 69%
    02:00 +15°C° 0 mm 1 mps 759 mmHg 71%
    03:00 +16°C° 0 mm 1 mps 759 mmHg 72%
    04:00 +16°C° 0 mm 2 mps 759 mmHg 72%
    05:00 +16°C° 0 mm 2 mps 759 mmHg 73%
    06:00 +18°C° 0 mm 2 mps 759 mmHg 66%
    07:00 +19°C° 0 mm 2 mps 759 mmHg 59%
    08:00 +21°C° 0 mm 2 mps 759 mmHg 52%
    09:00 +23°C° 0 mm 2 mps 759 mmHg 48%
    10:00 +24°C° 0 mm 2 mps 759 mmHg 44%
    11:00 +25°C° 0 mm 2 mps 759 mmHg 41%
    12:00 +26°C° 0 mm 2 mps 759 mmHg 37%
    13:00 +26°C° 0 mm 2 mps 759 mmHg 34%
    14:00 +26°C° 0 mm 2 mps 759 mmHg 31%
    15:00 +26°C° 0 mm 2 mps 759 mmHg 32%
    16:00 +26°C° 0 mm 2 mps 759 mmHg 33%
    17:00 +25°C° 0 mm 2 mps 759 mmHg 34%
    18:00 +24°C° 0 mm 2 mps 759 mmHg 41%
    19:00 +21°C° 0 mm 2 mps 759 mmHg 47%
    20:00 +19°C° 0 mm 2 mps 758 mmHg 54%
    21:00 +19°C° 0 mm 1 mps 759 mmHg 55%
    22:00 +18°C° 0 mm 1 mps 759 mmHg 56%
    23:00 +18°C° 0 mm 1 mps 759 mmHg 57%

    Day after tomorrow, 24 July, Wednesday

    Time Temperature Precipitation Wind Pressure Humidity
    00:00 +16°C° 0.1 mm 1 mps 759 mmHg 61%
    01:00 +15°C° 0.1 mm 0 mps 759 mmHg 65%
    02:00 +14°C° 0.1 mm 0 mps 759 mmHg 70%
    03:00 +15°C° 0 mm 1 mps 759 mmHg 71%
    04:00 +16°C° 0 mm 2 mps 759 mmHg 72%
    05:00 +16°C° 0 mm 2 mps 759 mmHg 74%
    06:00 +17°C° 0 mm 2 mps 759 mmHg 70%
    07:00 +18°C° 0 mm 2 mps 759 mmHg 67%
    08:00 +20°C° 0 mm 2 mps 759 mmHg 63%
    09:00 +20°C° 0 mm 2 mps 759 mmHg 62%
    10:00 +20°C° 0 mm 2 mps 759 mmHg 61%
    11:00 +21°C° 0 mm 2 mps 759 mmHg 60%
    12:00 +20°C° 0 mm 2 mps 759 mmHg 62%
    13:00 +20°C° 0 mm 2 mps 759 mmHg 63%
    14:00 +20°C° 0 mm 3 mps 759 mmHg 64%
    15:00 +20°C° 0 mm 3 mps 759 mmHg 65%
    16:00 +19°C° 0 mm 2 mps 759 mmHg 66%
    17:00 +19°C° 0 mm 2 mps 760 mmHg 67%
    18:00 +18°C° 0 mm 2 mps 760 mmHg 71%
    19:00 +18°C° 0 mm 1 mps 760 mmHg 75%
    20:00 +18°C° 0 mm 1 mps 760 mmHg 79%
    21:00 +16°C° 0 mm 1 mps 760 mmHg 80%
    22:00 +16°C° 0 mm 1 mps 760 mmHg 81%
    23:00 +15°C° 0 mm 1 mps 760 mmHg 83%

    25 July, Thursday

    Time Temperature Precipitation Wind Pressure Humidity
    00:00 +15°C° 0 mm 1 mps 760 mmHg 85%
    01:00 +14°C° 0 mm 1 mps 761 mmHg 87%
    02:00 +13°C° 0 mm 0 mps 761 mmHg 89%
    03:00 +14°C° 0 mm 1 mps 761 mmHg 88%
    04:00 +15°C° 0 mm 1 mps 761 mmHg 86%
    05:00 +15°C° 0 mm 1 mps 761 mmHg 84%
    06:00 +18°C° 0 mm 1 mps 761 mmHg 76%
    07:00 +20°C° 0 mm 1 mps 761 mmHg 68%
    08:00 +23°C° 0 mm 1 mps 761 mmHg 61%
    09:00 +25°C° 0 mm 1 mps 762 mmHg 55%
    10:00 +27°C° 0 mm 2 mps 762 mmHg 49%
    11:00 +29°C° 0 mm 2 mps 762 mmHg 43%
    12:00 +29°C° 0 mm 2 mps 762 mmHg 42%
    13:00 +29°C° 0 mm 2 mps 762 mmHg 42%
    14:00 +29°C° 0 mm 2 mps 762 mmHg 41%
    15:00 +28°C° 0 mm 2 mps 762 mmHg 45%
    16:00 +28°C° 0 mm 2 mps 761 mmHg 48%
    17:00 +27°C° 0 mm 1 mps 761 mmHg 52%
    18:00 +26°C° 0 mm 1 mps 762 mmHg 59%
    19:00 +24°C° 0 mm 1 mps 762 mmHg 65%
    20:00 +23°C° 0 mm 1 mps 762 mmHg 71%
    21:00 +22°C° 0 mm 1 mps 762 mmHg 74%
    22:00 +21°C° 0 mm 1 mps 762 mmHg 76%
    23:00 +20°C° 0 mm 1 mps 763 mmHg 79%

    26 July, Friday

    Time Temperature Precipitation Wind Pressure Humidity
    00:00 +18°C° 0 mm 2 mps 763 mmHg 79%
    01:00 +18°C° 0 mm 2 mps 763 mmHg 79%
    02:00 +18°C° 0 mm 2 mps 763 mmHg 79%
    03:00 +18°C° 0 mm 2 mps 763 mmHg 79%
    04:00 +18°C° 0 mm 2 mps 763 mmHg 79%
    05:00 +18°C° 0 mm 2 mps 764 mmHg 78%
    06:00 +20°C° 0 mm 2 mps 764 mmHg 72%
    07:00 +23°C° 0 mm 2 mps 764 mmHg 66%
    08:00 +25°C° 0 mm 2 mps 764 mmHg 59%
    09:00 +26°C° 0 mm 2 mps 764 mmHg 56%
    10:00 +27°C° 0 mm 1 mps 764 mmHg 52%
    11:00 +28°C° 0 mm 1 mps 764 mmHg 48%
    12:00 +28°C° 0 mm 1 mps 764 mmHg 46%
    13:00 +29°C° 0 mm 1 mps 763 mmHg 44%
    14:00 +30°C° 0 mm 1 mps 763 mmHg 42%
    15:00 +29°C° 0 mm 1 mps 763 mmHg 43%
    16:00 +29°C° 0 mm 1 mps 762 mmHg 43%
    17:00 +29°C° 0 mm 1 mps 762 mmHg 44%
    18:00 +27°C° 0 mm 1 mps 762 mmHg 51%
    19:00 +25°C° 0 mm 1 mps 762 mmHg 59%
    20:00 +23°C° 0 mm 1 mps 762 mmHg 66%
    21:00 +23°C° 0 mm 1 mps 762 mmHg 68%
    22:00 +21°C° 0 mm 2 mps 762 mmHg 69%
    23:00 +20°C° 0 mm 2 mps 762 mmHg 71%

    27 July, Saturday

    Time Temperature Precipitation Wind Pressure Humidity
    00:00 +20°C° 0 mm 2 mps 762 mmHg 71%
    01:00 +19°C° 0 mm 2 mps 762 mmHg 71%
    02:00 +19°C° 0 mm 2 mps 762 mmHg 71%
    03:00 +19°C° 0 mm 2 mps 761 mmHg 71%
    04:00 +19°C° 0 mm 2 mps 761 mmHg 72%
    05:00 +19°C° 0 mm 2 mps 761 mmHg 72%
    06:00 +21°C° 0 mm 3 mps 761 mmHg 65%
    07:00 +24°C° 0 mm 3 mps 761 mmHg 59%
    08:00 +27°C° 0 mm 3 mps 760 mmHg 53%
    09:00 +28°C° 0 mm 3 mps 760 mmHg 48%
    10:00 +29°C° 0 mm 3 mps 760 mmHg 44%
    11:00 +31°C° 0 mm 3 mps 760 mmHg 39%
    12:00 +31°C° 0 mm 3 mps 760 mmHg 39%
    13:00 +33°C° 0 mm 4 mps 760 mmHg 39%
    14:00 +33°C° 0 mm 4 mps 759 mmHg 39%
    15:00 +32°C° 0 mm 4 mps 759 mmHg 41%
    16:00 +30°C° 0 mm 5 mps 760 mmHg 43%
    17:00 +30°C° 0 mm 5 mps 760 mmHg 46%
    18:00 +27°C° 0 mm 5 mps 760 mmHg 53%
    19:00 +25°C° 0 mm 5 mps 761 mmHg 61%
    20:00 +21°C° 0 mm 5 mps 761 mmHg 69%
    21:00 +19°C° 0 mm 5 mps 762 mmHg 69%
    22:00 +17°C° 0 mm 5 mps 762 mmHg 70%
    23:00 +15°C° 0 mm 5 mps 763 mmHg 70%
    Show more